Back to catalog

IRIDIUM 33 DEB

AlivePO
NORAD 33966·DEBRIS·🇺🇸 United States

Launched Sep 14, 1997 from Baikonur Cosmodrome

Loading…

Next Passes (next 24 hours)

TLE

FreshSource: Space-Track

Epoch: Sep 14, 2026, 08:03 UTC

1 33966U 97051CB  26257.33602124  .00001006  00000-0  25150-3 0  9995
2 33966  86.3877 287.6685 0007786  20.4768 352.1190 14.50580858924364

Track IRIDIUM 33 DEB in real time with AllMySat

Download on the App Store